Flag for Finland Weather past 2 weeks in Pori, Finland

50 °F

Passing clouds.

Feels Like: 46 °F
Forecast: 38 / 51 °F
Wind: 9 mph from West

Location: Pori Airport

Current Time: Oct 13, 2015 at 12:45:24 PM

Latest Report: Oct 13, 2015 at 12:20 PM

Visibility: N/A

Pressure: 30.39 "Hg

Humidity: 62%

Dew point: 37 °F

Location of PoriLocation

Historic Weather in Pori — Graph


Pori temperature yesterday

Maximum temperature yesterday: 52 °F (at 1:20 PM)
Minimum temperature yesterday: 27 °F (at 4:50 AM)
Average temperature yesterday: 39 °F

Past Weeks' High & Low Weather Summary

High61 °F (Oct 2, 5:50 PM)100% (Sep 29, 2:20 AM)30.69 "Hg (Sep 29, 2:20 AM)
Low19 °F (Oct 9, 4:50 AM)39% (Oct 8, 3:20 PM)29.56 "Hg (Oct 2, 2:20 PM)
Average42 °F79%30.27 "Hg
* Reported Sep 28 11:20 AM — Oct 13 11:20 AM, Pori, Weather by CustomWeather, © 2015

Note: Actual official high and low records may vary slightly from our data, if they occured in-between our weather recording intervals... More about our weather records


Pori weather history for previous 24 hours

Time TempWeatherWind HumidityBarometerVisibility
11:20 AM
Tue, Oct 13
50 °FScattered clouds.10 mph58%30.39 "HgN/A
10:50 AM50 °FPassing clouds.7 mph62%30.39 "HgN/A
10:20 AM48 °FPartly sunny.3 mph66%30.39 "HgN/A
9:50 AM45 °FPartly sunny.5 mph76%30.42 "HgN/A
9:20 AM37 °FPartly sunny.3 mph100%30.42 "HgN/A
8:50 AM34 °FPassing clouds.3 mph100%30.42 "HgN/A
8:20 AM32 °FPassing clouds.2 mph100%30.42 "HgN/A
7:50 AM30 °FPassing clouds.1 mph100%30.42 "Hg4 mi
7:20 AM30 °FIce fog.2 mph100%30.42 "Hg1 mi
6:20 AM32 °FPassing clouds.3 mph100%30.42 "Hg5 mi
5:50 AM32 °FPassing clouds.2 mph100%30.42 "Hg5 mi
5:20 AM32 °FIce fog.3 mph100%30.42 "Hg3 mi
4:50 AM32 °FIce fog.3 mph100%30.42 "Hg1 mi
4:20 AM32 °FIce fog.5 mph100%30.42 "Hg1 mi
3:50 AM32 °FIce fog.3 mph100%30.42 "Hg1 mi
3:20 AM32 °FIce fog.3 mph100%30.42 "Hg1 mi
2:50 AM34 °FIce fog.3 mph93%30.42 "Hg1 mi
2:20 AM34 °FFog.3 mph93%30.42 "Hg1 mi
1:50 AM34 °FIce fog.3 mph100%30.42 "Hg1 mi
1:20 AM34 °FFog.3 mph100%30.42 "Hg1 mi
12:50 AM34 °FIce fog.3 mph100%30.42 "Hg1 mi
12:20 AM34 °FFog.3 mph100%30.42 "Hg1 mi
11:50 PM
Mon, Oct 12
34 °FClear.3 mph100%30.42 "Hg10 mi
11:20 PM34 °FChilly.2 mph100%30.42 "Hg4 mi
10:50 PM36 °FClear.3 mph93%30.42 "Hg10 mi
10:20 PM37 °FPassing clouds.2 mph93%30.42 "HgN/A
9:50 PM39 °FPassing clouds.5 mph87%30.42 "HgN/A
9:20 PM41 °FPassing clouds.3 mph81%30.42 "HgN/A
8:50 PM41 °FPassing clouds.2 mph87%30.42 "HgN/A
8:20 PM39 °FPassing clouds.3 mph87%30.42 "HgN/A
7:50 PM43 °FPassing clouds.3 mph87%30.42 "HgN/A
7:20 PM46 °FPartly sunny.5 mph71%30.42 "HgN/A
6:50 PM48 °FOvercast.5 mph71%30.42 "HgN/A
6:20 PM48 °FOvercast.5 mph66%30.42 "HgN/A
5:50 PM48 °FOvercast.5 mph66%30.42 "HgN/A
5:20 PM50 °FPartly sunny.8 mph62%30.42 "HgN/A
4:50 PM50 °FPartly sunny.7 mph62%30.45 "HgN/A
4:20 PM50 °FPassing clouds.9 mph62%30.45 "HgN/A
3:50 PM52 °FScattered clouds.10 mph58%30.45 "HgN/A
3:20 PM52 °FScattered clouds.10 mph58%30.45 "HgN/A
2:50 PM52 °FPartly sunny.10 mph58%30.45 "HgN/A
2:20 PM52 °FPartly sunny.10 mph58%30.45 "HgN/A
1:50 PM50 °FPartly sunny.10 mph62%30.45 "HgN/A
1:20 PM52 °FPartly sunny.13 mph62%30.45 "HgN/A
12:50 PM50 °FScattered clouds.12 mph67%30.45 "HgN/A
12:20 PM50 °FPassing clouds.10 mph62%30.45 "HgN/A
Weather by CustomWeather, © 2015

See weather overviewHow to use our weather pages